Scammon Bay Airport
PACM : now visible

Airfield :











YOU CAN JOIN US ON...

 
LOGIN :

Register | Disclaimer

   EN    FR    IT 

 









Legend :    VFR   Marginal VFR   IFR   Intensive IFR   Very Intensive IFR
Visi :
Ceiling :
>= 8 km
>= 3000ft
5 to 8 km
1000 to 3000 ft
1500m to 5 km
500 to 1000 ft
800 to 1500m
200 to 500 ft
< 800m
< 200 ft
Symbols :   Thunderstorms  Fog  Heavy snow  Heavy precipitations  Wind > 20 kt






- Airport Elevation : 14 ft


PACM - Scammon Bay

CURRENT METAR :
  • 040756Z AUTO 21005KT 10SM FEW010 BKN120 06/05 A2995 RMK AO2 SLP139 T00560050

EXPIRED METARs :
  • 040656Z AUTO 27007KT 10SM FEW095 07/06 A2995 RMK AO2 SLP138 T00720061
  • 040556Z AUTO 26008KT 10SM SCT008 OVC095 08/06 A2995 RMK AO2 SLP136 T00780061 10100 20072 51015

TAF N/A
PAZA FIR / North America



MET'MAP, your aeronautical weather chart ! - Copyright ORBIFLY December 2007 - Disclaimer

ORBIFLY MET'MAP TEAM :

Programming & Development : Alexandra Zaïnal
Concept & original design : Baudouin d'Aumeries
Assistance for programming : Marc-Olivier Méhu
Technical & hardware support : Manuel Goepfert

Contact : metmap@orbifly.com




SOURCES & CREDITS :

   NOAA       Earth
Advisory